TDRS 3 1 19548U 88091B 22145.96473280 -.00000311 00000-0 00000+0 0 9991 2 19548 13.7312 351.5018 0035206 335.5547 214.7728 1.00266103110492 HST 1 20580U 90037B 22145.83533168 .00003402 00000-0 19047-3 0 9998 2 20580 28.4703 318.6673 0002674 145.0225 316.5399 15.10506502562793 TDRS 5 1 21639U 91054B 22146.01088354 .00000074 00000-0 00000+0 0 9994 2 21639 14.2401 4.8318 0025974 2.2527 72.6794 1.00272867112837 TDRS 6 1 22314U 93003B 22145.17144928 -.00000306 00000-0 00000+0 0 9996 2 22314 14.1306 8.0725 0011745 106.3256 144.2542 1.00271638107493 TDRS 7 1 23613U 95035B 22145.59537830 -.00000212 00000-0 00000-0 0 9997 2 23613 13.9871 358.7570 0030512 49.9932 133.3377 1.00277717 98374 ISS (ZARYA) 1 25544U 98067A 22146.22125881 .00010617 00000-0 19583-3 0 9998 2 25544 51.6432 85.3792 0005097 158.3306 343.0517 15.49688356341774 LANDSAT 7 1 25682U 99020A 22146.22185823 .00000515 00000-0 11725-3 0 9999 2 25682 97.9802 195.1303 0001502 101.7274 258.4096 14.59743424229327 TERRA 1 25994U 99068A 22146.22711557 .00000406 00000-0 99995-4 0 9991 2 25994 98.1373 218.6560 0001442 95.5415 330.0303 14.57167318193389 TDRS 8 1 26388U 00034A 22145.70531514 -.00000242 00000-0 00000-0 0 9993 2 26388 10.3328 42.7133 0023528 345.6145 198.2119 1.00273693 80307 EO 1 1 26619U 00075A 22145.90546328 .00000751 00000-0 14918-3 0 9996 2 26619 97.9127 115.0716 0010767 140.0170 220.1828 14.64808373429143 TIMED 1 26998U 01055B 22145.99853050 .00001139 00000-0 12605-3 0 9999 2 26998 74.0721 324.3785 0001679 237.6706 122.4313 14.88648253109806 TDRS 9 1 27389U 02011A 22145.29128215 -.00000293 00000-0 00000-0 0 9992 2 27389 8.9721 61.0298 0025746 304.6442 279.8219 1.00269264 75562 AQUA 1 27424U 02022A 22145.83444493 .00000872 00000-0 20283-3 0 9993 2 27424 98.2466 87.9413 0001117 56.2930 1.2549 14.57279064 66933 TDRS 10 1 27566U 02055A 22145.74658442 .00000083 00000-0 00000-0 0 9993 2 27566 8.1628 50.0979 0009689 339.8901 310.9186 1.00269769 71352 SORCE 1 27651U 03004A 22145.80975159 .00002053 00000-0 22288-3 0 9991 2 27651 39.9961 343.9228 0024385 311.3973 48.4721 14.89872268 49699 AURA 1 28376U 04026A 22145.83519014 .00000872 00000-0 20356-3 0 9999 2 28376 98.2083 89.4954 0001536 85.0806 275.0567 14.57133219949931 SWIFT 1 28485U 04047A 22145.24963520 .00004577 00000-0 27237-3 0 9994 2 28485 20.5562 113.2694 0010605 6.0711 353.9851 15.06301234960040 THEMIS A 1 30580U 07004A 22145.46057032 -.00000004 00000-0 34640-1 0 9991 2 30580 14.7242 347.5837 8378650 161.0846 278.6172 0.87834575 52926 THEMIS D 1 30797U 07004D 22145.92407324 -.00000106 00000-0 00000-0 0 9990 2 30797 10.6389 337.3582 8343130 174.4349 75.7430 0.87837459 28030 THEMIS E 1 30798U 07004E 22145.93931206 -.00000102 00000-0 00000+0 0 9998 2 30798 11.3427 349.8994 8329148 164.1520 69.3144 0.87840836 52869 AIM 1 31304U 07015A 22145.77906098 .00011149 00000-0 56067-3 0 9997 2 31304 97.8562 64.1390 0006849 92.3295 267.8722 15.17403185827758 GLAST 1 33053U 08029A 22145.86587003 .00002569 00000-0 12810-3 0 9991 2 33053 25.5830 321.1926 0011594 278.9824 80.9399 15.12147158770279 WISE 1 36119U 09071A 22146.07773748 .00008445 00000-0 26414-3 0 9996 2 36119 97.2411 180.9492 0003368 55.8532 304.3030 15.33376820692094 TDRS 11 1 39070U 13004A 22146.03169833 .00000073 00000-0 00000+0 0 9994 2 39070 2.9508 345.4411 0007342 66.2557 29.0491 1.00277880 34111 TDRS 12 1 39504U 14004A 22146.17871043 -.00000278 00000-0 00000+0 0 9993 2 39504 3.8795 346.9136 0004905 108.8489 171.4497 1.00271501 30578 GPM 1 39574U 14009C 22145.83168868 .00023058 00000-0 31971-3 0 9996 2 39574 65.0025 265.3435 0009824 266.2718 93.7305 15.57001344468095 MMS 1 1 40482U 15011A 22139.84485279 -.00000394 00000-0 00000+0 0 9996 2 40482 32.4594 106.2871 8629753 50.5039 51.7441 0.28354801 13214 MMS 2 1 40483U 15011B 22140.55734069 -.00000366 00000-0 00000+0 0 9990 2 40483 32.5047 106.3488 8643182 50.4675 124.4788 0.28365196 13199 MMS 3 1 40484U 15011C 22143.54229317 -.00000085 00000-0 00000-0 0 9997 2 40484 32.5380 106.4625 8662556 50.6364 69.3646 0.28461674 12970 MMS 4 1 40485U 15011D 22140.55736656 -.00000366 00000-0 00000+0 0 9996 2 40485 32.5031 106.3514 8642363 50.4725 124.4608 0.28365211 13199